[[{"header":{"parameterUnit":"m.s-1","parameterCategory":1,"la1":30.2991,"la2":30.254,"lo1":-89.0895,"lo2":-89.0444,"dy":0.0017,"dx":0.0017,"nx":28,"ny":28,"refTime":"2024-03-24T21:00:00:Z","depth":0,"parameterNumber":2,"parameterNumberName":"U-component_of_WINDS"},"data":[0,0,0,0,0,0,0,0,0,0,0,0,0,0,0,0,0,0,0,0,0,0,0,0,0,0,0,0,0,0,0,0,0,0,0,0,0,0,0,0,0,0,0,0,0,0,0,0,0,0,0,0,0,0,0,0,0,0,-6.3272,-6.3275,0,-6.3549,-6.3553,-6.3556,-6.3641,-6.364,-6.3638,-6.3637,-6.3925,-6.3934,-6.3943,0,0,0,0,0,0,0,0,0,0,0,0,0,-6.2819,-6.2827,-6.3272,-6.3275,-6.3279,-6.3549,-6.3553,-6.3557,-6.3641,-6.364,-6.3638,-6.3636,-6.3922,-6.3933,-6.3944,0,0,0,0,0,0,0,0,0,0,0,0,0,-6.3048,-6.283,-6.3271,-6.3353,-6.3364,-6.3548,-6.3553,-6.3558,-6.3642,-6.364,-6.3638,-6.3636,-6.3919,-6.3932,-6.3945,-6.4069,0,0,-6.3986,-6.3992,0,0,0,0,0,0,0,0,-6.3035,-6.3065,-6.3338,-6.3348,-6.336,-6.3558,-6.3499,-6.3729,-6.3642,-6.3536,-6.3637,-6.3635,-6.3805,-6.3828,-6.3884,-6.4082,-6.4095,-6.3987,-6.3995,-6.4001,-6.4005,0,0,0,0,0,0,0,-6.3019,-6.3053,-6.3382,-6.3342,-6.3355,-6.3378,-6.3408,-6.3543,-6.3679,-6.3545,-6.3552,-6.3584,-6.3811,-6.3871,-6.3892,-6.4099,-6.3987,-6.3999,-6.4007,-6.4012,-6.4413,-6.4416,0,0,0,0,0,0,-6.2989,-6.3039,-6.3373,-6.339,-6.3189,-6.3388,-6.3422,-6.3497,-6.3678,-6.3703,-6.3585,-6.3587,-6.3849,-6.3876,-6.3902,-6.4059,-6.4001,-6.4014,-6.4021,-6.4411,-6.4414,-6.4416,0,0,0,0,0,0,-6.2979,-6.3018,-6.3362,-6.3217,-6.3262,-6.3398,-6.3482,-6.3503,-6.3564,-6.3708,-6.3733,-6.3622,-6.3849,-6.3883,-6.4027,-6.407,-6.402,-6.4032,-6.4407,-6.4411,-6.4415,-6.4372,0,0,0,0,0,0,-6.2965,-6.3013,-6.3061,-6.3217,-6.327,-6.348,-6.3484,-6.351,-6.3586,-6.3591,-6.3749,-6.3773,-6.385,-6.4006,-6.404,-6.4087,-6.4042,-6.4404,-6.4409,-6.4414,-6.437,-6.4374,-6.4377,0,0,0,0,0,-6.2949,-6.3039,-6.3063,-6.3102,-6.3331,-6.3482,-6.3512,-6.3598,-6.3589,-6.3639,-6.3731,-6.3768,-6.406,-6.402,-6.4059,-6.4111,-6.4402,-6.4408,-6.4413,-6.4369,-6.4373,-6.4377,0,0,0,0,0,0,-6.2885,-6.306,-6.3089,-6.3232,-6.3341,-6.3496,-6.3561,-6.36,-6.3715,-6.3715,-6.3818,-6.3853,-6.3988,-6.4065,-6.4017,-6.4241,-6.4232,-6.4246,-6.4185,-6.4191,-6.4194,-6.4172,-6.4053,0,0,0,0,0,-6.2887,-6.2994,-6.3142,-6.3254,-6.3307,-6.3424,-6.3493,-6.355,-6.3668,-6.3715,-6.3818,-6.3932,-6.405,-6.4125,-6.4241,-6.4383,-6.4418,-6.4438,-6.4441,-6.4443,-6.4453,-6.4534,-6.4544,-6.4436,-6.4436,-6.4435,0,0,-6.2894,-6.3003,-6.3064,-6.3244,-6.3335,-6.3444,-6.3463,-6.3577,-6.3659,-6.3733,-6.3873,-6.3953,-6.4088,-6.423,-6.4298,-6.4298,-6.4492,-6.4451,-6.4451,-6.4461,-6.4541,-6.4551,-6.456,-6.444,-6.4439,-6.4438,0,0,-6.296,-6.3053,-6.3156,-6.3247,-6.3385,-6.3463,-6.3487,-6.3637,-6.3692,-6.3835,-6.3892,-6.3992,-6.4193,-6.4286,-6.4359,-6.4462,-6.4499,-6.4497,-6.4515,-6.4592,-6.46,-6.4608,-6.4643,-6.4655,-6.4507,-6.4507,-6.4507,0,-6.295,-6.3115,-6.3204,-6.3316,-6.3393,-6.3464,-6.3569,-6.3654,-6.3823,-6.3876,-6.3873,-6.4126,-6.4222,-6.4386,-6.4411,-6.4469,-6.4501,-6.4478,-6.4591,-6.46,-6.4609,-6.4644,-6.4657,-6.4506,-6.4506,-6.4506,-6.4506,0,-6.3096,-6.321,-6.3277,-6.3436,-6.3522,-6.3629,-6.3736,-6.3813,-6.3862,-6.394,-6.4085,-6.4202,-6.4343,-6.4387,-6.4438,-6.456,-6.4555,-6.4571,-6.4564,-6.4616,-6.4651,-6.4665,-6.4504,-6.4504,-6.4505,-6.4505,0,0,-6.3128,-6.3336,-6.3359,-6.3432,-6.3589,-6.368,-6.3792,-6.3928,-6.3991,-6.4106,-6.4202,-6.4371,-6.4386,-6.4469,-6.4531,-6.4599,-6.4671,-6.4607,-6.4611,-6.4613,-6.4812,-6.4798,-6.4812,-6.4698,-6.4701,-6.4704,-6.48,0,-6.3213,-6.3413,-6.3497,-6.3659,-6.3765,-6.3834,-6.3932,-6.404,-6.4116,-6.4219,-6.4304,-6.4421,-6.4433,-6.4484,-6.4554,-6.4647,-6.4712,-6.4642,-6.4789,-6.4793,-6.475,-6.483,-6.4816,-6.4901,-6.4815,-6.4817,-6.4819,0,-6.3338,-6.3452,-6.3623,-6.3768,-6.3816,-6.3901,-6.4033,-6.413,-6.4255,-6.4306,-6.4399,-6.4457,-6.4578,-6.4565,-6.4733,-6.4683,-6.4749,-6.4804,-6.481,-6.4825,-6.4807,-6.4846,-6.4931,-6.4942,-6.4841,-6.4839,-6.4838,0,-6.3342,-6.3539,-6.3667,-6.3727,-6.39,-6.3958,-6.4033,-6.4155,-6.4232,-6.4348,-6.4399,-6.4529,-6.4599,-6.4698,-6.4791,-6.4773,-6.495,-6.4945,-6.4996,-6.4993,-6.5028,-6.5024,-6.5123,-6.5074,-6.5073,-6.5073,-6.5073,0,-6.3427,-6.3529,-6.367,-6.3749,-6.3865,-6.3962,-6.4076,-6.4156,-6.4264,-6.436,-6.443,-6.4519,-6.4636,-6.4741,-6.4814,-6.4942,-6.4974,-6.5019,-6.5036,-6.5011,-6.5005,-6.5054,-6.505,-6.5077,-6.5076,-6.5075,-6.5075,0,-6.345,-6.3549,-6.3692,-6.3844,-6.3884,-6.3963,-6.4094,-6.4173,-6.4253,-6.4374,-6.4408,-6.4535,-6.4661,-6.4763,-6.493,-6.4979,-6.5112,-6.5134,-6.5069,-6.5078,-6.5123,-6.5116,-6.5254,-6.5277,-6.5213,-6.5214,-6.5214,0,-6.3496,-6.3576,-6.3735,-6.3804,-6.3877,-6.3987,-6.4066,-6.4165,-6.4244,-6.4392,-6.4454,-6.4585,-6.4695,-6.4894,-6.5002,-6.5129,-6.5153,-6.5193,-6.5173,-6.5145,-6.5152,-6.5145,-6.5153,-6.5194,-6.5194,-6.5194,-6.5194,0,-6.3568,-6.3613,-6.3722,-6.3849,-6.394,-6.4045,-6.4152,-6.4204,-6.4324,-6.4409,-6.4538,-6.4624,-6.4793,-6.4922,-6.5061,-6.514,-6.5187,-6.52,-6.5219,-6.5192,-6.5151,-6.5172,-6.5073,-6.5196,-6.5196,-6.5196,-6.5196,-6.5196,-6.3603,-6.3677,-6.38,-6.392,-6.401,-6.4109,-6.419,-6.428,-6.439,-6.4533,-6.4587,-6.4719,-6.4843,-6.5034,-6.5114,-6.522,-6.5224,-6.5251,-6.5258,-6.5262,-6.5258,-6.5135,-6.5246,-6.5246,-6.5246,-6.5246,-6.5246,0,-6.3677,-6.376,-6.3869,-6.4015,-6.4109,-6.4145,-6.4265,-6.4342,-6.4457,-6.4568,-6.4674,-6.4823,-6.4949,-6.5067,-6.5199,-6.5261,-6.5286,-6.5293,-6.5288,-6.5305,-6.5247,-6.5217,-6.527,-6.527,-6.527,-6.527,-6.527,-6.527,-6.3726,-6.3852,-6.3912,-6.4084,-6.4168,-6.4296,-6.4362,-6.4453,-6.4542,-6.4704,-6.4809,-6.4884,-6.4998,-6.5139,-6.5257,-6.5289,-6.5333,-6.5333,-6.537,-6.5313,-6.531,-6.5306,-6.5278,-6.5343,-6.5343,-6.542,-6.542,-6.5421]},{"header":{"parameterUnit":"m.s-1","parameterCategory":1,"la1":30.2991,"la2":30.254,"lo1":-89.0895,"lo2":-89.0444,"dy":0.0017,"dx":0.0017,"nx":28,"ny":28,"refTime":"2024-03-24T21:00:00:Z","depth":0,"parameterNumber":3,"parameterNumberName":"V-component_of_WINDS"},"data":[0,0,0,0,0,0,0,0,0,0,0,0,0,0,0,0,0,0,0,0,0,0,0,0,0,0,0,0,0,0,0,0,0,0,0,0,0,0,0,0,0,0,0,0,0,0,0,0,0,0,0,0,0,0,0,0,0,0,4.0695,4.0695,0,4.0686,4.0686,4.0686,4.0656,4.0656,4.0655,4.0654,4.0648,4.0648,4.0649,0,0,0,0,0,0,0,0,0,0,0,0,0,4.0689,4.0689,4.0695,4.0695,4.0695,4.0686,4.0686,4.0686,4.0656,4.0656,4.0655,4.0654,4.0648,4.0648,4.0649,0,0,0,0,0,0,0,0,0,0,0,0,0,4.0687,4.0689,4.0695,4.0679,4.0677,4.0686,4.0686,4.0686,4.0657,4.0655,4.0654,4.0654,4.0648,4.0648,4.0649,4.0673,0,0,4.0651,4.0651,0,0,0,0,0,0,0,0,4.0687,4.0687,4.0681,4.068,4.0678,4.0671,4.0681,4.0682,4.0657,4.0664,4.0654,4.0653,4.0657,4.0656,4.0657,4.0673,4.0673,4.0651,4.0651,4.0652,4.0652,0,0,0,0,0,0,0,4.0687,4.0688,4.0691,4.0681,4.0679,4.0673,4.0672,4.0681,4.0666,4.0664,4.0662,4.0661,4.0656,4.0657,4.0657,4.0673,4.0651,4.0652,4.0652,4.0652,4.071,4.0711,0,0,0,0,0,0,4.0689,4.0688,4.0692,4.0691,4.068,4.0674,4.0672,4.0674,4.0666,4.0664,4.0662,4.0659,4.0656,4.0656,4.0656,4.0686,4.0652,4.0652,4.0653,4.0709,4.071,4.0712,0,0,0,0,0,0,4.0689,4.069,4.0692,4.0689,4.0689,4.0675,4.0678,4.0675,4.0676,4.0665,4.0662,4.0665,4.0655,4.0655,4.067,4.0685,4.0653,4.0653,4.0708,4.0709,4.0711,4.0744,0,0,0,0,0,0,4.0689,4.069,4.0699,4.0689,4.0689,4.0704,4.0679,4.0675,4.0677,4.0674,4.0667,4.0665,4.0654,4.0669,4.067,4.0686,4.0654,4.0706,4.0708,4.071,4.0742,4.0747,4.0751,0,0,0,0,0,4.0689,4.0708,4.0699,4.07,4.0699,4.0705,4.0705,4.0692,4.0678,4.0687,4.068,4.0665,4.0683,4.067,4.0672,4.0688,4.0705,4.0708,4.071,4.0739,4.0746,4.0751,0,0,0,0,0,0,4.0721,4.0707,4.0696,4.0713,4.071,4.07,4.0711,4.0698,4.07,4.0698,4.0681,4.068,4.0697,4.0693,4.068,4.0712,4.0692,4.0695,4.0713,4.0719,4.0724,4.0725,4.0654,0,0,0,0,0,4.0729,4.0735,4.0723,4.0738,4.0738,4.0725,4.0727,4.0717,4.0714,4.0713,4.0707,4.0705,4.0711,4.0715,4.0719,4.0741,4.074,4.0752,4.0757,4.0761,4.0764,4.0777,4.0783,4.072,4.072,4.072,0,0,4.0747,4.0741,4.0745,4.0745,4.0741,4.0749,4.0724,4.0732,4.0738,4.0714,4.0727,4.0723,4.0721,4.0739,4.0747,4.0737,4.0781,4.0764,4.0768,4.0769,4.0781,4.0787,4.0792,4.0722,4.0721,4.0721,0,0,4.0785,4.0779,4.0793,4.079,4.0785,4.0777,4.078,4.0772,4.0768,4.0781,4.0764,4.0771,4.078,4.0779,4.078,4.0818,4.0805,4.082,4.0845,4.0858,4.0863,4.0868,4.0883,4.0888,4.0823,4.0823,4.0823,0,4.0808,4.0817,4.0801,4.0811,4.0812,4.079,4.0804,4.0803,4.08,4.0802,4.079,4.0802,4.0799,4.0818,4.0827,4.0828,4.0833,4.0821,4.0863,4.0868,4.0872,4.0886,4.0892,4.0825,4.0824,4.0824,4.0824,0,4.0848,4.0854,4.0866,4.0863,4.0865,4.0877,4.0864,4.0869,4.0858,4.0851,4.0866,4.0861,4.0864,4.0868,4.0858,4.0886,4.088,4.0866,4.0846,4.088,4.0893,4.0898,4.0827,4.0827,4.0826,4.0826,0,0,4.0905,4.0893,4.0898,4.0897,4.0891,4.0896,4.0908,4.0911,4.0916,4.0915,4.0925,4.0934,4.0921,4.0922,4.0912,4.0923,4.0956,4.0908,4.0908,4.0919,4.0989,4.1,4.1007,4.0947,4.0948,4.0949,4.099,0,4.0941,4.096,4.0946,4.0967,4.0974,4.0954,4.0964,4.0962,4.0956,4.0962,4.0956,4.0963,4.0945,4.0946,4.0956,4.095,4.097,4.0947,4.0959,4.0959,4.0961,4.1014,4.1026,4.1064,4.0995,4.0995,4.0996,0,4.0986,4.0987,4.1009,4.1003,4.1005,4.1014,4.1017,4.1022,4.102,4.1015,4.1017,4.1004,4.1016,4.0996,4.1014,4.0998,4.1002,4.1,4.1001,4.1003,4.0981,4.1018,4.1076,4.1083,4.1004,4.1003,4.1003,0,4.1028,4.1035,4.1049,4.1049,4.1041,4.1048,4.1045,4.1042,4.1045,4.1047,4.105,4.1053,4.1056,4.106,4.1049,4.1035,4.107,4.1048,4.1067,4.1068,4.1077,4.1076,4.1137,4.1077,4.1077,4.1076,4.1076,0,4.1071,4.1086,4.1068,4.1077,4.1093,4.1077,4.1094,4.109,4.1087,4.1096,4.1078,4.1087,4.1072,4.108,4.1072,4.1089,4.109,4.1088,4.1086,4.109,4.1091,4.1094,4.1091,4.1078,4.1078,4.1077,4.1077,0,4.1121,4.1109,4.1124,4.1115,4.1113,4.1126,4.1119,4.1128,4.112,4.1132,4.1134,4.1123,4.1131,4.1121,4.1128,4.1123,4.1147,4.114,4.1148,4.1146,4.1167,4.1166,4.1234,4.1243,4.1175,4.1175,4.1176,0,4.115,4.1161,4.1154,4.1158,4.1156,4.1163,4.1166,4.1151,4.1155,4.1154,4.1164,4.117,4.1175,4.119,4.1183,4.119,4.1184,4.1207,4.1185,4.119,4.1187,4.1187,4.1189,4.1212,4.1213,4.1214,4.1214,0,4.1204,4.1198,4.1202,4.1205,4.1209,4.121,4.1211,4.1216,4.12,4.1206,4.1214,4.1218,4.1225,4.1233,4.1238,4.1236,4.1224,4.1221,4.1226,4.1232,4.1237,4.1236,4.1162,4.122,4.1219,4.1219,4.1219,4.1218,4.1246,4.1255,4.1251,4.1257,4.1256,4.1257,4.1265,4.1259,4.1265,4.1269,4.126,4.1271,4.127,4.1275,4.1275,4.1284,4.1275,4.1282,4.1284,4.1286,4.129,4.1234,4.1285,4.1285,4.1284,4.1284,4.1284,0,4.13,4.1297,4.1302,4.1303,4.1309,4.1294,4.1294,4.13,4.131,4.1309,4.1314,4.1324,4.1332,4.1326,4.1333,4.1341,4.1336,4.1344,4.1344,4.1345,4.1298,4.1293,4.1348,4.1348,4.1348,4.1348,4.1348,4.1348,4.133,4.1345,4.1338,4.1353,4.135,4.136,4.1361,4.1363,4.1362,4.1374,4.138,4.1376,4.1374,4.138,4.1387,4.1386,4.139,4.14,4.1397,4.1354,4.1347,4.1342,4.1337,4.1401,4.1401,4.1443,4.1444,4.1444]}]]